Location: Unspecified
(0.0000°N, 0.0000°E)
Time: 18:33:58
(UTC+00:00)

Vanguard 2 Rocket - Pass Details

Date: 19 January 2020
Orbit: 554 x 3327 km, 32.9° (Epoch: 20 February)

Event Time Altitude Azimuth Distance (km) Brightness Sun altitude
Rises 18:13:24 0° 263° (W) 7,314 13.6 -0.6°
Reaches altitude 10° 18:20:50 10° 248° (WSW) 6,179 13.3 -2.4°
Maximum altitude 18:33:10 20° 207° (SSW) 4,775 11.3 -5.3°
Drops below altitude 10° 18:43:00 10° 165° (SSE) 4,805 10.7 -7.6°
Sets 18:47:46 0° 148° (SSE) 5,324 10.7 -8.7°
